• In Romania
  • List of Countries
  • For 7 days
  • Water Temperature
  • Satellite Maps
  • Weather Map
  • Weather Widgets
  • user-avatar
    Login

    Hourly Weather Spiridonovka

    Today, 23 October, Tuesday

    Time Temperature Precipitation Wind Pressure Humidity
    00:00 +3°C° 0 mm 3 mps 764 mmHg 66%
    01:00 +4°C° 0 mm 3 mps 763 mmHg 66%
    02:00 +4°C° 0 mm 3 mps 763 mmHg 65%
    03:00 +4°C° 0 mm 3 mps 763 mmHg 67%
    04:00 +4°C° 0 mm 3 mps 762 mmHg 67%
    05:00 +4°C° 0 mm 4 mps 762 mmHg 66%
    06:00 +4°C° 0 mm 4 mps 761 mmHg 65%
    07:00 +5°C° 0 mm 4 mps 761 mmHg 62%
    08:00 +5°C° 0 mm 5 mps 761 mmHg 58%
    09:00 +6°C° 0 mm 5 mps 760 mmHg 55%
    10:00 +7°C° 0 mm 5 mps 759 mmHg 51%
    11:00 +8°C° 0 mm 5 mps 759 mmHg 46%
    12:00 +9°C° 0 mm 6 mps 758 mmHg 42%
    13:00 +9°C° 0 mm 5 mps 757 mmHg 43%
    14:00 +9°C° 0 mm 5 mps 757 mmHg 43%
    15:00 +9°C° 0 mm 5 mps 756 mmHg 43%
    16:00 +9°C° 0.1 mm 5 mps 755 mmHg 49%
    17:00 +8°C° 0.1 mm 5 mps 755 mmHg 54%
    18:00 +8°C° 0.1 mm 6 mps 754 mmHg 59%
    19:00 +8°C° 0 mm 5 mps 754 mmHg 60%
    20:00 +9°C° 0 mm 5 mps 753 mmHg 61%
    21:00 +9°C° 0 mm 5 mps 752 mmHg 61%
    22:00 +9°C° 0.1 mm 5 mps 752 mmHg 63%
    23:00 +10°C° 0.1 mm 4 mps 751 mmHg 65%

    Tomorrow, 24 October, Wednesday

    Time Temperature Precipitation Wind Pressure Humidity
    00:00 +10°C° 0.1 mm 4 mps 751 mmHg 66%
    01:00 +10°C° 0 mm 4 mps 751 mmHg 68%
    02:00 +10°C° 0 mm 4 mps 751 mmHg 70%
    03:00 +10°C° 0 mm 4 mps 751 mmHg 72%
    04:00 +8°C° 0 mm 4 mps 750 mmHg 77%
    05:00 +9°C° 0 mm 3 mps 750 mmHg 82%
    06:00 +8°C° 0 mm 3 mps 750 mmHg 86%
    07:00 +8°C° 0 mm 4 mps 750 mmHg 84%
    08:00 +10°C° 0 mm 4 mps 750 mmHg 83%
    09:00 +10°C° 0 mm 5 mps 750 mmHg 81%
    10:00 +12°C° 0 mm 5 mps 749 mmHg 75%
    11:00 +13°C° 0 mm 6 mps 749 mmHg 70%
    12:00 +13°C° 0 mm 6 mps 749 mmHg 64%
    13:00 +13°C° 0 mm 6 mps 749 mmHg 61%
    14:00 +14°C° 0 mm 5 mps 749 mmHg 57%
    15:00 +14°C° 0 mm 5 mps 748 mmHg 53%
    16:00 +13°C° 0 mm 4 mps 748 mmHg 58%
    17:00 +11°C° 0 mm 4 mps 748 mmHg 62%
    18:00 +10°C° 0 mm 3 mps 748 mmHg 67%
    19:00 +10°C° 0 mm 4 mps 748 mmHg 70%
    20:00 +10°C° 0 mm 4 mps 748 mmHg 74%
    21:00 +9°C° 0 mm 5 mps 748 mmHg 77%
    22:00 +9°C° 0 mm 5 mps 748 mmHg 76%
    23:00 +9°C° 0 mm 5 mps 748 mmHg 75%

    Day after tomorrow, 25 October, Thursday

    Time Temperature Precipitation Wind Pressure Humidity
    00:00 +9°C° 0 mm 5 mps 747 mmHg 74%
    01:00 +9°C° 0.5 mm 6 mps 747 mmHg 77%
    02:00 +10°C° 0.5 mm 6 mps 747 mmHg 79%
    03:00 +10°C° 0.5 mm 6 mps 747 mmHg 81%
    04:00 +10°C° 0.3 mm 6 mps 746 mmHg 81%
    05:00 +10°C° 0.3 mm 6 mps 746 mmHg 82%
    06:00 +10°C° 0.3 mm 6 mps 745 mmHg 82%
    07:00 +11°C° 0.3 mm 6 mps 745 mmHg 75%
    08:00 +11°C° 0.3 mm 7 mps 745 mmHg 68%
    09:00 +12°C° 0.3 mm 7 mps 744 mmHg 62%
    10:00 +12°C° 0.1 mm 7 mps 744 mmHg 60%
    11:00 +14°C° 0.1 mm 7 mps 744 mmHg 57%
    12:00 +14°C° 0.1 mm 7 mps 743 mmHg 55%
    13:00 +15°C° 0 mm 7 mps 743 mmHg 57%
    14:00 +16°C° 0 mm 6 mps 742 mmHg 58%
    15:00 +17°C° 0 mm 6 mps 742 mmHg 60%
    16:00 +16°C° 0.1 mm 5 mps 741 mmHg 64%
    17:00 +15°C° 0.1 mm 4 mps 741 mmHg 67%
    18:00 +16°C° 0.1 mm 3 mps 741 mmHg 71%
    19:00 +14°C° 0.1 mm 3 mps 741 mmHg 75%
    20:00 +14°C° 0.1 mm 3 mps 741 mmHg 78%
    21:00 +13°C° 0.1 mm 3 mps 741 mmHg 81%
    22:00 +13°C° 0.4 mm 3 mps 741 mmHg 85%
    23:00 +13°C° 0.4 mm 2 mps 741 mmHg 88%

    26 October, Friday

    Time Temperature Precipitation Wind Pressure Humidity
    00:00 +13°C° 0.4 mm 2 mps 741 mmHg 91%
    01:00 +11°C° 2 mm 3 mps 741 mmHg 91%
    02:00 +11°C° 2 mm 3 mps 742 mmHg 90%
    03:00 +10°C° 2 mm 3 mps 742 mmHg 90%
    04:00 +10°C° 0.5 mm 3 mps 742 mmHg 86%
    05:00 +8°C° 0.5 mm 4 mps 743 mmHg 82%
    06:00 +7°C° 0.5 mm 4 mps 743 mmHg 78%
    07:00 +8°C° 0 mm 4 mps 744 mmHg 75%
    08:00 +8°C° 0 mm 4 mps 744 mmHg 71%
    09:00 +8°C° 0 mm 5 mps 745 mmHg 68%
    10:00 +9°C° 0 mm 5 mps 746 mmHg 64%
    11:00 +9°C° 0 mm 5 mps 746 mmHg 60%
    12:00 +10°C° 0 mm 5 mps 746 mmHg 56%
    13:00 +10°C° 0 mm 5 mps 747 mmHg 56%
    14:00 +11°C° 0 mm 4 mps 747 mmHg 56%
    15:00 +10°C° 0 mm 4 mps 747 mmHg 56%
    16:00 +10°C° 0.1 mm 4 mps 747 mmHg 59%
    17:00 +8°C° 0.1 mm 4 mps 748 mmHg 63%
    18:00 +7°C° 0.1 mm 4 mps 748 mmHg 66%
    19:00 +7°C° 0.1 mm 4 mps 749 mmHg 68%
    20:00 +6°C° 0.1 mm 4 mps 749 mmHg 69%
    21:00 +6°C° 0.1 mm 4 mps 749 mmHg 71%
    22:00 +5°C° 0 mm 4 mps 750 mmHg 72%
    23:00 +4°C° 0 mm 4 mps 750 mmHg 74%

    27 October, Saturday

    Time Temperature Precipitation Wind Pressure Humidity
    00:00 +4°C° 0 mm 3 mps 751 mmHg 76%
    01:00 +3°C° 0 mm 3 mps 751 mmHg 78%
    02:00 +3°C° 0 mm 3 mps 751 mmHg 80%
    03:00 +2°C° 0 mm 3 mps 752 mmHg 82%
    04:00 +2°C° 0 mm 3 mps 752 mmHg 82%
    05:00 +2°C° 0 mm 3 mps 752 mmHg 83%
    06:00 +1°C° 0 mm 3 mps 753 mmHg 83%
    07:00 +2°C° 0 mm 3 mps 753 mmHg 77%
    08:00 +3°C° 0 mm 4 mps 753 mmHg 71%
    09:00 +4°C° 0 mm 4 mps 754 mmHg 65%
    10:00 +5°C° 0 mm 5 mps 754 mmHg 62%
    11:00 +6°C° 0 mm 5 mps 754 mmHg 58%
    12:00 +5°C° 0 mm 6 mps 754 mmHg 55%
    13:00 +5°C° 0 mm 6 mps 754 mmHg 57%
    14:00 +5°C° 0 mm 6 mps 755 mmHg 60%
    15:00 +5°C° 0 mm 6 mps 755 mmHg 62%
    16:00 +5°C° 0 mm 5 mps 756 mmHg 64%
    17:00 +4°C° 0 mm 4 mps 756 mmHg 65%
    18:00 +3°C° 0 mm 4 mps 757 mmHg 67%
    19:00 +3°C° 0 mm 4 mps 757 mmHg 69%
    20:00 +3°C° 0 mm 4 mps 758 mmHg 71%
    21:00 +2°C° 0 mm 3 mps 758 mmHg 73%
    22:00 +2°C° 0 mm 3 mps 758 mmHg 75%
    23:00 +1°C° 0 mm 4 mps 758 mmHg 77%

    28 October, Sunday

    Time Temperature Precipitation Wind Pressure Humidity
    00:00 +1°C° 0 mm 4 mps 759 mmHg 79%
    01:00 +1°C° 0 mm 4 mps 758 mmHg 79%
    02:00 +1°C° 0 mm 5 mps 758 mmHg 79%
    03:00 +2°C° 0 mm 6 mps 758 mmHg 78%
    04:00 +2°C° 0.1 mm 7 mps 757 mmHg 77%
    05:00 +2°C° 0.1 mm 7 mps 757 mmHg 76%
    06:00 +2°C° 0.1 mm 8 mps 756 mmHg 75%
    07:00 +3°C° 0.3 mm 9 mps 756 mmHg 75%
    08:00 +5°C° 0.3 mm 9 mps 755 mmHg 75%
    09:00 +5°C° 0.3 mm 10 mps 755 mmHg 75%
    10:00 +6°C° 1.1 mm 10 mps 755 mmHg 78%
    11:00 +6°C° 1.1 mm 9 mps 755 mmHg 81%
    12:00 +7°C° 1.1 mm 9 mps 754 mmHg 84%
    13:00 +9°C° 0.9 mm 8 mps 754 mmHg 86%
    14:00 +9°C° 0.9 mm 8 mps 754 mmHg 87%
    15:00 +10°C° 0.9 mm 7 mps 754 mmHg 88%
    16:00 +10°C° 0.3 mm 7 mps 755 mmHg 87%
    17:00 +10°C° 0.3 mm 7 mps 755 mmHg 85%
    18:00 +10°C° 0.3 mm 7 mps 756 mmHg 83%
    19:00 +9°C° 0 mm 6 mps 757 mmHg 82%
    20:00 +8°C° 0 mm 6 mps 757 mmHg 81%
    21:00 +8°C° 0 mm 5 mps 758 mmHg 79%
    22:00 +7°C° 0 mm 5 mps 759 mmHg 79%
    23:00 +7°C° 0 mm 4 mps 760 mmHg 78%

    29 October, Monday

    Time Temperature Precipitation Wind Pressure Humidity
    00:00 +6°C° 0 mm 4 mps 760 mmHg 78%
    01:00 +7°C° 0 mm 3 mps 761 mmHg 78%
    02:00 +5°C° 0 mm 3 mps 761 mmHg 77%
    03:00 +5°C° 0 mm 3 mps 762 mmHg 77%
    04:00 +6°C° 0.1 mm 2 mps 762 mmHg 77%
    05:00 +5°C° 0.1 mm 2 mps 763 mmHg 77%
    06:00 +5°C° 0.1 mm 2 mps 763 mmHg 77%
    07:00 +5°C° 0 mm 2 mps 764 mmHg 73%
    08:00 +6°C° 0 mm 2 mps 764 mmHg 69%
    09:00 +6°C° 0 mm 2 mps 765 mmHg 66%
    10:00 +6°C° 0 mm 2 mps 765 mmHg 63%
    11:00 +7°C° 0 mm 1 mps 766 mmHg 60%
    12:00 +8°C° 0 mm 1 mps 766 mmHg 57%
    13:00 +8°C° 0 mm 1 mps 766 mmHg 56%
    14:00 +8°C° 0 mm 1 mps 766 mmHg 56%
    15:00 +8°C° 0 mm 1 mps 766 mmHg 55%
    16:00 +8°C° 0.1 mm 1 mps 767 mmHg 59%
    17:00 +6°C° 0.1 mm 2 mps 767 mmHg 62%
    18:00 +6°C° 0.1 mm 2 mps 767 mmHg 66%
    19:00 +6°C° 0.1 mm 2 mps 767 mmHg 68%
    20:00 +5°C° 0.1 mm 3 mps 767 mmHg 70%
    21:00 +5°C° 0.1 mm 3 mps 767 mmHg 72%
    22:00 +5°C° 0 mm 3 mps 767 mmHg 73%
    23:00 +5°C° 0 mm 3 mps 767 mmHg 75%
    Show more